Regional Weather Roundup
Issued by NWS San Diego, CA

Home | Current Version | Previous Version | Text Only | Print | Product List | Glossary On
Versions: 1 2 3 4 5 6 7 8 9 10 11 12 13 14 15 16 17 18 19 20 21 22 23 24 25 26 27 28 29 30 31 32 33 34 35 36 37 38 39 40 41 42 43 44 45 46 47 48 49 50
000
ASUS46 KSGX 201710
RWRSGX

SAN DIEGO HOURLY WEATHER ROUNDUP
NATIONAL WEATHER SERVICE SAN DIEGO CA
1000 AM PDT WED AUG 20 2014

NOTE: "FAIR" INDICATES FEW OR NO CLOUDS BELOW 12,000 FEET WITH NO
SIGNIFICANT WEATHER AND/OR OBSTRUCTIONS TO VISIBILITY.

CAZ042-043-060-061-PZZ750-775-201800-

GREATER SAN DIEGO AREA

CITY           SKY/WX    TMP DP  RH WIND       PRES   REMARKS
LINDBERGH FLD  CLOUDY    72  59  63 VRB3      29.95S THUNDER
POINT LOMA       N/A     71  60  67 SE3         N/A
NATIONAL CITY    N/A     74  64  70 W2        29.95R
CHULA VISTA      N/A     73  65  76 CALM      29.88R
IMPERIAL BEACH PTSUNNY   73  60  63 SW8       29.95R
BROWN FIELD    PTSUNNY   71  60  68 SW5       29.95R
MIRAMAR MCAS   PTSUNNY   70  58  65 CALM      29.94
MONTGOMERY FLD CLOUDY    71  60  68 W3        29.95R

$$

NORTH SAN DIEGO COUNTY

CITY           SKY/WX    TMP DP  RH WIND       PRES   REMARKS
CAMP PENDLETON PTSUNNY   71  62  73 SW3       29.95R
OCEANSIDE AP   MOSUNNY   72  60  66 E5        29.94R
CARLSBAD       MOSUNNY   68  62  81 NE3       29.94R
DEL MAR          N/A     67  64  90 CALM      29.96S
FALLBROOK        N/A     65  65 100 CALM      29.95S
ESCONDIDO        N/A     67  62  82 CALM      29.97R
SAN MARCOS       N/A     65  61  86 CALM      29.93R
POWAY            N/A     71  61  71 CALM      29.95R
R. PENASQUITOS   N/A     68  62  82 CALM      29.94R

$$

EAST SAN DIEGO COUNTY

CITY           SKY/WX    TMP DP  RH WIND       PRES   REMARKS
RAMONA         CLOUDY    70  58  65 W6        29.97S
SANTEE LAKES     N/A     74  62  66 CALM      29.94S
GILLESPIE FLD  FAIR      75  57  53 NW3       29.96R
LA MESA          N/A     73  63  72 CALM      29.88R
JAMUL            N/A     73  61  66 CALM      29.93R
DESCANSO N       N/A     76  34  22 W2        29.81R
MT. LAGUNA OBS   N/A     62  43  49 SW2       29.72R
CAMPO            N/A     76  34  21 CALM      29.96S

$$

ORANGE COUNTY AND THE LOS ANGELES BASIN

CITY           SKY/WX    TMP DP  RH WIND       PRES   REMARKS
JOHN WAYNE AP  MOSUNNY   76  60  57 SE3       29.94R
LAGUNA BEACH     N/A     74  64  71 S2        29.91R
LAKE FOREST FR   N/A     72  58  62 SW1       29.84F
SANTA ANA        N/A     73  63  72 CALM      29.89S
HUNTINGTON BCH   N/A     72  64  74 SW2       29.97R
LOS ALAMITOS   MOSUNNY   75  60  60 VRB1      29.94S
FULLERTON      MOSUNNY   76  59  55 CALM      29.93S
LONG BEACH     MOSUNNY   75  59  57 NE3       29.94S
L.A. AP        PTSUNNY   73  59  61 VRB5      29.95R
L.A. DOWNTOWN  MOSUNNY   74  59  59 CALM      29.94R

$$

THE INLAND EMPIRE

CITY           SKY/WX    TMP DP  RH WIND       PRES   REMARKS
CORONA         SUNNY     75  61  62 VRB5        N/A
CHINO          MOSUNNY   73  60  63 CALM      29.96S
ONTARIO        MOSUNNY   73  59  61 VRB3      29.96R
SAN BERNARDINO PTSUNNY   68  57  68 CALM      29.97R HAZE
RIVERSIDE AP   MOSUNNY   72  60  66 NE5       29.96R
RIV CYN CREST    N/A     69  68  96 NE2       29.95R
MORENO VALLEY    N/A     70  64  81 SE5       29.18R
MARCH ARB      MOSUNNY   68  61  78 E6        29.98R
HORSETHIEF CYN   N/A     69  56  62 E1        29.95R
PERRIS           N/A     64  63  96 CALM      29.96R
MENIFEE          N/A     67  66  96 E1        30.03R
HEMET EAST       N/A     61  56  82 CALM      29.89F
FRENCH VALLEY  FAIR      64  61  88 N3        29.96S
TEMECULA         N/A     64  63  97 S2        29.93S

$$

SAN BERNARDINO AND RIVERSIDE COUNTY MOUNTAINS

CITY           SKY/WX    TMP DP  RH WIND       PRES   REMARKS
BIG BEAR AP    PTSUNNY   57  36  44 S8G18     30.20R
BIG BEAR SHEA    N/A     58  34  39 S10       29.93R
ANGELUS OAKS     N/A     64  44  49 SW1       29.80R
PINE COVE        N/A     52  48  85 NW1       29.83R

$$

SOUTHERN DESERT INCLUDING THE COACHELLA VALLEY

CITY           SKY/WX    TMP DP  RH WIND       PRES   REMARKS
PALM SPRINGS   CLOUDY    82  55  39 N15       29.89R
THOUSAND PALMS   N/A     83  55  36 N7        29.84R
PALM DESERT      N/A     84  58  41 N2        27.20S
THERMAL        CLOUDY    88  50  27 N9        29.82R
BLYTHE         MOSUNNY   93  49  22 S15       29.85R
IMPERIAL AP    SUNNY     90  41  18 VRB3      29.83R
EL CENTRO NAS  PTSUNNY   91  38  15 VRB5      29.84R
YUMA AZ        PTSUNNY   93  60  33 SE12      29.84R
MEXICALI       PTSUNNY   90  54  29 NE8       29.84

$$

UPPER DESERT

CITY           SKY/WX    TMP DP  RH WIND       PRES   REMARKS
VICTORVILLE AP SUNNY     75  39  27 SE6       29.99R
HESPERIA         N/A     76  49  39 CALM      29.96S
APPLE VALLEY     N/A     80  42  25 CALM      30.04S
GRAY BUTTE AP  FAIR      73  38  28 N3        29.98S
PALMDALE       SUNNY     76  44  32 N3        29.98R
LANCASTER      SUNNY     74  43  32 S3        29.97R
EDWARDS AFB    MOSUNNY   72  46  39 S3        29.96R
DAGGETT        MOSUNNY   80  41  24 NW8       29.94R
29 PALMS N     TSTM      79  46  31 W9        30.04R
NEEDLES        SUNNY     91  57  31 VRB7      29.89R

$$

REGIONAL REPORTS

CITY           SKY/WX    TMP DP  RH WIND       PRES   REMARKS
SANTA BARBARA  MOSUNNY   70  59  68 W7        29.94R
SANDBERG       SUNNY     70  38  31 S10       30.07R
MT. WILSON       N/A     70  39  32 SE2         N/A
LAS VEGAS NV   PTSUNNY   83  47  28 SE7       29.91R
PHOENIX AZ     MOSUNNY   86  65  49 S8        29.93R
TIJUANA        PTSUNNY   70  57  64 W5        29.97R
ENSENADA NW      N/A     71  32  23 W6        29.93R

$$

OFFSHORE ISLANDS

CITY           SKY/WX    TMP DP  RH WIND       PRES   REMARKS
CATALINA ARPT  PTSUNNY   66  56  70 VRB3      29.98R
SAN CLEMENTE I CLOUDY    70  59  68 SW6       29.97R
SAN NICOLAS IS PTSUNNY   67  58  72 NW8       29.96R

$$

MARINE AND OFFSHORE BUOY REPORTS

STATION/POSITION SKY/WX   TEMP    WIND        PRES    SWELL
                          AIR SEA DIR/SP/G            HT/PER/DIR
                          (F)     (DEG/KT/KT) (MB)    (FT/S/D)
TANNER BANKS               65 68  300/  6/  8 1014.5R   3/300/ 8
S CLEMENTE BASIN           68 70  270/  8/ 10 1013.8R   3/230/15
SAN NICOLAS IS.               65                N/A     2/190/14
SO. S. ROSA ISLA           64 67  310/  6/  8 1013.8R   3/14
W. S. BARBARA CH           61 61  330/  4/  6 1013.6R   3/300/ 8
M. S. BARBARA CH           63     290/  4       N/A
S. MONICA BASIN            67 72  350/  8/ 10 1013.8R   2/100/15
S PEDRO CHANNEL               68                N/A     2/170/15
DANA POINT                    72                N/A     2/200/15
OCEANSIDE OFFSHR              72                N/A     2/200/15
TORREY PINES OTR              72                N/A     2/210/14
LA JOLLA 1                 69 63  330/  2/  3 1013.7F
MISSION BAY BUOY              69                N/A     2/210/14
SAN DIEGO BAY                 73              1014.4R
POINT LOMA SOUTH              73                N/A     2/190/14

$$



USA.gov is the U.S. government's official web portal to all federal, state and local government web resources and services.